| time (UTC) | temp F | wind direction | speed MPH | gust MPH | rain 1hr in | rain 24hr in | rain mn in | humidity % | barometer mb |
| 20260504225410 | 57 | 259 | 15.0 | 27.0 | 0.00 | 0.00 | 0.00 | 58 | 1009.0 |
| 20260504224904 | 57 | 211 | 15.0 | 27.0 | 0.00 | 0.00 | 0.00 | 58 | 1009.1 |
| 20260504224405 | 57 | 246 | 16.0 | 30.0 | 0.00 | 0.00 | 0.00 | 57 | 1009.1 |
| 20260504224126 | 57 | 227 | 16.0 | 30.0 | 0.00 | 0.00 | 0.00 | 57 | 1009.1 |
| 20260504223405 | 58 | 273 | 15.0 | 29.0 | 0.00 | 0.00 | 0.00 | 57 | 1009.1 |
| 20260504222905 | 58 | 248 | 15.0 | 28.0 | 0.00 | 0.00 | 0.00 | 57 | 1009.1 |
| 20260504222405 | 58 | 244 | 15.0 | 28.0 | 0.00 | 0.00 | 0.00 | 56 | 1009.1 |
| 20260504221906 | 58 | 231 | 15.0 | 26.0 | 0.00 | 0.00 | 0.00 | 57 | 1009.1 |
| 20260504221404 | 58 | 265 | 16.0 | 30.0 | 0.00 | 0.00 | 0.00 | 56 | 1009.2 |
| 20260504220905 | 58 | 257 | 16.0 | 30.0 | 0.00 | 0.00 | 0.00 | 55 | 1009.2 |
| 20260504220400 | 58 | 241 | 15.0 | 27.0 | 0.00 | 0.00 | 0.00 | 55 | 1009.2 |
| 20260504215900 | 59 | 253 | 15.0 | 27.0 | 0.00 | 0.00 | 0.00 | 55 | 1009.3 |
| 20260504215400 | 59 | 294 | 15.0 | 27.0 | 0.00 | 0.00 | 0.00 | 55 | 1009.3 |
| 20260504214859 | 59 | 248 | 15.0 | 27.0 | 0.00 | 0.00 | 0.00 | 54 | 1009.2 |
| 20260504214400 | 59 | 226 | 14.0 | 28.0 | 0.00 | 0.00 | 0.00 | 54 | 1009.3 |
| 20260504213904 | 60 | 235 | 15.0 | 28.0 | 0.00 | 0.00 | 0.00 | 53 | 1009.3 |
| 20260504213358 | 60 | 279 | 14.0 | 24.0 | 0.00 | 0.00 | 0.00 | 53 | 1009.3 |
| 20260504212900 | 60 | 241 | 13.0 | 24.0 | 0.00 | 0.00 | 0.00 | 53 | 1009.3 |
| 20260504212359 | 60 | 213 | 13.0 | 25.0 | 0.00 | 0.00 | 0.00 | 52 | 1009.2 |
| 20260504212115 | 60 | 253 | 14.0 | 25.0 | 0.00 | 0.00 | 0.00 | 52 | 1009.2 |
| 20260504211621 | 60 | 229 | 14.0 | 24.0 | 0.00 | 0.00 | 0.00 | 51 | 1009.2 |
| 20260504210853 | 60 | 236 | 15.0 | 26.0 | 0.00 | 0.00 | 0.00 | 50 | 1009.2 |
| 20260504210347 | 61 | 239 | 14.0 | 26.0 | 0.00 | 0.00 | 0.00 | 50 | 1009.1 |
| 20260504205841 | 61 | 257 | 13.0 | 24.0 | 0.00 | 0.00 | 0.00 | 49 | 1009.2 |
| 20260504205335 | 61 | 227 | 13.0 | 24.0 | 0.00 | 0.00 | 0.00 | 48 | 1009.1 |
| 20260504204829 | 61 | 240 | 11.0 | 24.0 | 0.00 | 0.00 | 0.00 | 49 | 1009.3 |
| 20260504204323 | 61 | 264 | 13.0 | 24.0 | 0.00 | 0.00 | 0.00 | 49 | 1009.3 |
| 20260504203817 | 61 | 264 | 14.0 | 25.0 | 0.00 | 0.00 | 0.00 | 49 | 1009.2 |
| 20260504203310 | 62 | 247 | 13.0 | 25.0 | 0.00 | 0.00 | 0.00 | 48 | 1009.2 |
| 20260504202805 | 62 | 253 | 13.0 | 24.0 | 0.00 | 0.00 | 0.00 | 48 | 1009.2 |
| 20260504202258 | 62 | 261 | 13.0 | 22.0 | 0.00 | 0.00 | 0.00 | 47 | 1009.1 |
| 20260504201753 | 62 | 230 | 14.0 | 22.0 | 0.00 | 0.00 | 0.00 | 46 | 1009.2 |
| 20260504201247 | 62 | 253 | 13.0 | 24.0 | 0.00 | 0.00 | 0.00 | 45 | 1009.1 |
| 20260504200740 | 63 | 277 | 12.0 | 24.0 | 0.00 | 0.00 | 0.00 | 45 | 1009.0 |
| 20260504200454 | 63 | 261 | 12.0 | 24.0 | 0.00 | 0.00 | 0.00 | 47 | 1009.3 |
| 20260504195727 | 63 | 268 | 14.0 | 24.0 | 0.00 | 0.00 | 0.00 | 46 | 1009.3 |
| 20260504195221 | 62 | 244 | 14.0 | 24.0 | 0.00 | 0.00 | 0.00 | 46 | 1009.3 |
| 20260504194715 | 63 | 253 | 13.0 | 24.0 | 0.00 | 0.00 | 0.00 | 47 | 1009.4 |
| 20260504194209 | 62 | 259 | 13.0 | 23.0 | 0.00 | 0.00 | 0.00 | 48 | 1009.4 |
| 20260504193703 | 62 | 225 | 13.0 | 23.0 | 0.00 | 0.00 | 0.00 | 48 | 1009.5 |
| 20260504193157 | 63 | 242 | 12.0 | 21.0 | 0.00 | 0.00 | 0.00 | 48 | 1009.4 |
| 20260504192917 | 63 | 213 | 13.0 | 24.0 | 0.00 | 0.00 | 0.00 | 48 | 1009.5 |
| 20260504192145 | 64 | 212 | 13.0 | 24.0 | 0.00 | 0.00 | 0.00 | 44 | 1009.5 |
| 20260504191638 | 64 | 225 | 13.0 | 23.0 | 0.00 | 0.00 | 0.00 | 45 | 1009.5 |
| 20260504191132 | 64 | 263 | 12.0 | 23.0 | 0.00 | 0.00 | 0.00 | 43 | 1009.4 |
| 20260504190626 | 64 | 246 | 12.0 | 24.0 | 0.00 | 0.00 | 0.00 | 44 | 1009.5 |
| 20260504190121 | 64 | 250 | 12.0 | 24.0 | 0.00 | 0.00 | 0.00 | 44 | 1009.5 |
| 20260504185615 | 64 | 234 | 12.0 | 26.0 | 0.00 | 0.00 | 0.00 | 44 | 1009.6 |
| 20260504185110 | 64 | 246 | 12.0 | 26.0 | 0.00 | 0.00 | 0.00 | 43 | 1009.6 |
| 20260504184603 | 64 | 247 | 12.0 | 26.0 | 0.00 | 0.00 | 0.00 | 44 | 1009.7 |
| 20260504184323 | 64 | 242 | 13.0 | 26.0 | 0.00 | 0.00 | 0.00 | 43 | 1009.8 |
| 20260504183551 | 63 | 267 | 13.0 | 24.0 | 0.00 | 0.00 | 0.00 | 43 | 1009.9 |
| 20260504183313 | 64 | 260 | 11.0 | 19.0 | 0.00 | 0.00 | 0.00 | 43 | 1009.8 |
| 20260504182539 | 64 | 237 | 11.0 | 24.0 | 0.00 | 0.00 | 0.00 | 46 | 1009.9 |
| 20260504182033 | 64 | 209 | 12.0 | 24.0 | 0.00 | 0.00 | 0.00 | 43 | 1009.9 |
| 20260504181526 | 64 | 245 | 13.0 | 26.0 | 0.00 | 0.00 | 0.00 | 42 | 1010.0 |
| 20260504181022 | 64 | 244 | 12.0 | 26.0 | 0.00 | 0.00 | 0.00 | 41 | 1010.0 |
| 20260504180515 | 64 | 250 | 12.0 | 23.0 | 0.00 | 0.00 | 0.00 | 45 | 1010.1 |
| 20260504180009 | 63 | 263 | 12.0 | 24.0 | 0.00 | 0.00 | 0.00 | 44 | 1010.2 |
| 20260504175503 | 63 | 227 | 12.0 | 24.0 | 0.00 | 0.00 | 0.00 | 43 | 1010.2 |
| 20260504174957 | 63 | 254 | 12.0 | 21.0 | 0.00 | 0.00 | 0.00 | 45 | 1010.3 |
| 20260504174715 | 64 | 274 | 13.0 | 22.0 | 0.00 | 0.00 | 0.00 | 44 | 1010.3 |
| 20260504174203 | 63 | 242 | 14.0 | 26.0 | 0.00 | 0.00 | 0.00 | 44 | 1010.1 |
| 20260504173439 | 64 | 234 | 13.0 | 26.0 | 0.00 | 0.00 | 0.00 | 40 | 1010.3 |
| 20260504172932 | 64 | 262 | 13.0 | 23.0 | 0.00 | 0.00 | 0.00 | 40 | 1010.3 |
| 20260504172426 | 64 | 248 | 13.0 | 23.0 | 0.00 | 0.00 | 0.00 | 40 | 1010.2 |
| 20260504172148 | 64 | 246 | 12.0 | 21.0 | 0.00 | 0.00 | 0.00 | 41 | 1010.2 |
| 20260504171908 | 64 | 264 | 12.0 | 21.0 | 0.00 | 0.00 | 0.00 | 38 | 1010.4 |
| 20260504170909 | 65 | 252 | 10.0 | 19.0 | 0.00 | 0.00 | 0.00 | 39 | 1010.4 |
| 20260504170403 | 65 | 270 | 11.0 | 23.0 | 0.00 | 0.00 | 0.00 | 38 | 1010.5 |
| 20260504160357 | 65 | 312 | 9.0 | 20.0 | 0.00 | 0.00 | 0.00 | 30 | 1010.8 |
| 20260504150820 | 64 | 248 | 9.0 | 20.0 | 0.00 | 0.00 | 0.00 | 31 | 1011.2 |
| 20260504150314 | 64 | 296 | 9.0 | 17.0 | 0.00 | 0.00 | 0.00 | 30 | 1011.5 |
| 20260504141303 | 62 | 275 | 10.0 | 18.0 | 0.00 | 0.00 | 0.00 | 39 | 1011.7 |
| 20260504141022 | 63 | 269 | 9.0 | 20.0 | 0.00 | 0.00 | 0.00 | 37 | 1011.7 |
| 20260504140301 | 63 | 313 | 9.0 | 20.0 | 0.00 | 0.00 | 0.00 | 36 | 1011.7 |
| 20260504130800 | 61 | 326 | 8.0 | 18.0 | 0.00 | 0.00 | 0.00 | 34 | 1012.0 |
| 20260504130300 | 61 | 336 | 9.0 | 18.0 | 0.00 | 0.00 | 0.00 | 36 | 1012.2 |
| 20260504120251 | 56 | 284 | 7.0 | 16.0 | 0.00 | 0.00 | 0.00 | 43 | 1012.3 |
| 20260504110245 | 53 | 271 | 6.0 | 12.0 | 0.00 | 0.00 | 0.00 | 47 | 1012.0 |
| 20260504100231 | 51 | 302 | 5.0 | 10.0 | 0.00 | 0.00 | 0.00 | 49 | 1011.7 |
| 20260504081558 | 53 | 300 | 6.0 | 14.0 | 0.00 | 0.00 | 0.00 | 45 | 1011.2 |
| 20260504081052 | 53 | 267 | 6.0 | 16.0 | 0.00 | 0.00 | 0.00 | 46 | 1011.2 |
| 20260504080545 | 53 | 308 | 5.0 | 16.0 | 0.00 | 0.00 | 0.00 | 46 | 1011.3 |
| 20260504050604 | 52 | 288 | 4.0 | 9.0 | 0.00 | 0.00 | 0.00 | 46 | 1010.8 |
| 20260504045843 | 52 | 284 | 4.0 | 10.0 | 0.00 | 0.00 | 0.00 | 44 | 1010.7 |
| 20260504045341 | 52 | 286 | 5.0 | 10.0 | 0.00 | 0.00 | 0.00 | 43 | 1010.8 |
| 20260504045100 | 52 | 275 | 4.0 | 10.0 | 0.00 | 0.00 | 0.00 | 45 | 1010.8 |
| 20260504044341 | 52 | 269 | 4.0 | 8.0 | 0.00 | 0.00 | 0.00 | 46 | 1010.8 |
| 20260504044105 | 52 | 265 | 3.0 | 6.0 | 0.00 | 0.00 | 0.00 | 47 | 1010.9 |
| 20260504043342 | 52 | 248 | 2.0 | 6.0 | 0.00 | 0.00 | 0.00 | 43 | 1010.8 |
| 20260504042840 | 52 | 266 | 2.0 | 4.0 | 0.00 | 0.00 | 0.00 | 42 | 1010.8 |
| 20260504042341 | 52 | 266 | 2.0 | 5.0 | 0.00 | 0.00 | 0.00 | 41 | 1010.7 |
| 20260504041841 | 52 | 302 | 2.0 | 6.0 | 0.00 | 0.00 | 0.00 | 41 | 1010.7 |
| 20260504041341 | 52 | 279 | 2.0 | 6.0 | 0.00 | 0.00 | 0.00 | 41 | 1010.7 |
| 20260504040843 | 52 | 281 | 3.0 | 6.0 | 0.00 | 0.00 | 0.00 | 40 | 1010.7 |
| 20260504040342 | 52 | 271 | 2.0 | 6.0 | 0.00 | 0.00 | 0.00 | 41 | 1010.7 |
| 20260504035842 | 52 | 287 | 2.0 | 6.0 | 0.00 | 0.00 | 0.00 | 41 | 1010.6 |
| 20260504035544 | 52 | 286 | 4.0 | 9.0 | 0.00 | 0.00 | 0.00 | 42 | 1010.6 |
| 20260504035430 | 52 | 310 | 3.0 | 6.0 | 0.00 | 0.00 | 0.00 | 41 | 1010.7 |
| 20260504034339 | 52 | 290 | 4.0 | 9.0 | 0.00 | 0.00 | 0.00 | 42 | 1010.6 |
| 20260504033834 | 52 | 263 | 3.0 | 7.0 | 0.00 | 0.00 | 0.00 | 43 | 1010.5 |
| 20260504033328 | 52 | 250 | 3.0 | 7.0 | 0.00 | 0.00 | 0.00 | 43 | 1010.5 |
| 20260504032822 | 52 | 267 | 4.0 | 7.0 | 0.00 | 0.00 | 0.00 | 44 | 1010.4 |
| 20260504032316 | 52 | 269 | 3.0 | 7.0 | 0.00 | 0.00 | 0.00 | 45 | 1010.4 |
| 20260504031813 | 51 | 272 | 3.0 | 7.0 | 0.00 | 0.00 | 0.00 | 45 | 1010.5 |
| 20260504031303 | 51 | 250 | 3.0 | 6.0 | 0.00 | 0.00 | 0.00 | 46 | 1010.5 |
| 20260504030758 | 51 | 292 | 3.0 | 6.0 | 0.00 | 0.00 | 0.00 | 47 | 1010.5 |
| 20260504030251 | 51 | 260 | 3.0 | 6.0 | 0.00 | 0.00 | 0.00 | 49 | 1010.5 |
| 20260504025746 | 51 | 278 | 2.0 | 6.0 | 0.00 | 0.00 | 0.00 | 51 | 1010.5 |
| 20260504025246 | 51 | 279 | 2.0 | 4.0 | 0.00 | 0.00 | 0.00 | 52 | 1010.5 |
| 20260504024746 | 51 | 277 | 2.0 | 4.0 | 0.00 | 0.00 | 0.00 | 52 | 1010.5 |
| 20260504024246 | 51 | 276 | 2.0 | 5.0 | 0.00 | 0.00 | 0.00 | 52 | 1010.5 |
| 20260504023743 | 51 | 252 | 3.0 | 7.0 | 0.00 | 0.00 | 0.00 | 53 | 1010.5 |
| 20260504023241 | 51 | 267 | 3.0 | 7.0 | 0.00 | 0.00 | 0.00 | 53 | 1010.6 |
| 20260504022943 | 51 | 248 | 2.0 | 4.0 | 0.00 | 0.00 | 0.00 | 54 | 1010.5 |
| 20260504022830 | 51 | 269 | 2.0 | 6.0 | 0.00 | 0.00 | 0.00 | 54 | 1010.6 |
| 20260504021738 | 51 | 276 | 2.0 | 5.0 | 0.00 | 0.00 | 0.00 | 54 | 1010.4 |
| 20260504021240 | 51 | 263 | 3.0 | 5.0 | 0.00 | 0.00 | 0.00 | 52 | 1010.4 |
| 20260504020957 | 51 | 234 | 3.0 | 4.0 | 0.00 | 0.00 | 0.00 | 51 | 1010.5 |
| 20260504020240 | 51 | 226 | 2.0 | 4.0 | 0.00 | 0.00 | 0.00 | 50 | 1010.5 |
| 20260504015740 | 51 | 232 | 2.0 | 4.0 | 0.00 | 0.00 | 0.00 | 49 | 1010.5 |
| 20260504015240 | 51 | 221 | 1.0 | 3.0 | 0.00 | 0.00 | 0.00 | 49 | 1010.5 |
| 20260504014740 | 51 | 232 | 2.0 | 5.0 | 0.00 | 0.00 | 0.00 | 51 | 1010.5 |
| 20260504014240 | 51 | 238 | 3.0 | 7.0 | 0.00 | 0.00 | 0.00 | 51 | 1010.4 |
| 20260504013739 | 51 | 240 | 3.0 | 7.0 | 0.00 | 0.00 | 0.00 | 51 | 1010.3 |
| 20260504013238 | 51 | 241 | 3.0 | 7.0 | 0.00 | 0.00 | 0.00 | 51 | 1010.3 |
| 20260504012736 | 51 | 256 | 3.0 | 7.0 | 0.00 | 0.00 | 0.00 | 50 | 1010.2 |
| 20260504012237 | 52 | 237 | 3.0 | 6.0 | 0.00 | 0.00 | 0.00 | 49 | 1010.2 |
| 20260504011737 | 52 | 255 | 3.0 | 6.0 | 0.00 | 0.00 | 0.00 | 48 | 1010.1 |
| 20260504011237 | 52 | 279 | 4.0 | 8.0 | 0.00 | 0.00 | 0.00 | 47 | 1010.0 |
| 20260504010738 | 52 | 264 | 4.0 | 8.0 | 0.00 | 0.00 | 0.00 | 48 | 1009.7 |
| 20260504010236 | 52 | 265 | 3.0 | 8.0 | 0.00 | 0.00 | 0.00 | 51 | 1009.7 |
| 20260504005741 | 52 | 263 | 4.0 | 8.0 | 0.00 | 0.00 | 0.00 | 51 | 1009.7 |
| 20260504005238 | 52 | 260 | 3.0 | 6.0 | 0.00 | 0.00 | 0.00 | 51 | 1009.7 |
| 20260504004738 | 52 | 250 | 3.0 | 6.0 | 0.00 | 0.00 | 0.00 | 50 | 1009.6 |
| 20260504004234 | 52 | 264 | 2.0 | 4.0 | 0.00 | 0.00 | 0.00 | 49 | 1009.5 |
| 20260504003733 | 52 | 252 | 2.0 | 4.0 | 0.00 | 0.00 | 0.00 | 46 | 1009.5 |
| 20260504003234 | 52 | 244 | 1.0 | 4.0 | 0.00 | 0.00 | 0.00 | 46 | 1009.4 |
| 20260504002733 | 52 | 263 | 0.0 | 3.0 | 0.00 | 0.00 | 0.00 | 41 | 1009.3 |
| 20260504002232 | 52 | 298 | 1.0 | 3.0 | 0.00 | 0.00 | 0.00 | 42 | 1009.2 |
| 20260504001733 | 52 | 336 | 2.0 | 4.0 | 0.00 | 0.00 | 0.00 | 42 | 1009.2 |
| 20260504001233 | 52 | 338 | 2.0 | 4.0 | 0.00 | 0.00 | 0.00 | 43 | 1009.1 |
| 20260504000732 | 52 | 338 | 3.0 | 5.0 | 0.00 | 0.00 | 0.00 | 44 | 1009.1 |
| 20260504000234 | 52 | 336 | 3.0 | 5.0 | 0.00 | 0.00 | 0.00 | 43 | 1009.0 |
| 20260503235952 | 52 | 351 | 3.0 | 5.0 | 0.00 | 0.00 | 0.00 | 44 | 1009.0 |
| 20260503235233 | 53 | 348 | 3.0 | 6.0 | 0.00 | 0.00 | 0.00 | 43 | 1009.0 |
| 20260503234733 | 53 | 0 | 3.0 | 8.0 | 0.00 | 0.00 | 0.00 | 42 | 1008.9 |
| 20260503234234 | 53 | 0 | 4.0 | 8.0 | 0.00 | 0.00 | 0.00 | 40 | 1008.9 |
| 20260503233732 | 53 | 5 | 4.0 | 8.0 | 0.00 | 0.00 | 0.00 | 41 | 1008.9 |
| 20260503233232 | 53 | 9 | 4.0 | 8.0 | 0.00 | 0.00 | 0.00 | 41 | 1008.8 |
| 20260503232733 | 53 | 342 | 4.0 | 8.0 | 0.00 | 0.00 | 0.00 | 40 | 1008.8 |
| 20260503232233 | 54 | 347 | 5.0 | 9.0 | 0.00 | 0.00 | 0.00 | 40 | 1008.8 |
| 20260503231733 | 54 | 5 | 5.0 | 10.0 | 0.00 | 0.00 | 0.00 | 40 | 1008.8 |
| 20260503231233 | 54 | 341 | 5.0 | 10.0 | 0.00 | 0.00 | 0.00 | 41 | 1008.8 |
| 20260503230732 | 54 | 350 | 6.0 | 12.0 | 0.00 | 0.00 | 0.00 | 42 | 1008.8 |
| 20260503230233 | 54 | 355 | 6.0 | 12.0 | 0.00 | 0.00 | 0.00 | 43 | 1008.8 |
| 20260503230001 | 54 | 355 | 7.0 | 13.0 | 0.00 | 0.00 | 0.00 | 42 | 1008.8 |